Location: Seven Kings
(51.5667°N, 0.1000°E)
Time: 11:07:12
(UTC+00:00)

COSMOS 2455 - Pass Details

Date: 29 October 2020
Orbit: 899 x 911 km, 67.1° (Epoch: 24 November)

Event Time Altitude Azimuth Distance (km) Brightness Sun altitude
Rises 19:56:08 0° 320° (NW) 3,553 6.7 -31.2°
Reaches altitude 10° 19:58:53 10° 329° (NNW) 2,609 5.8 -31.6°
Enters shadow 20:02:50 32° 4° (N) 1,535 4.1 -32.2°
